Location: Bakov nad Jizerou
(50.4784°N, 14.9394°E)
Time: 06:49:12
(UTC+00:00)

ARIANE 5 R/B - Pass Details

Date: 16 June 2021
Orbit: 620 x 656 km, 98.1° (Epoch: 16 July)

Event Time Altitude Azimuth Distance (km) Brightness Sun altitude
Exits shadow 20:06:03 - 159° (SSE) 2,287 4.9 -6.6°
Reaches altitude 10° 20:06:41 10° 159° (SSE) 2,029 4.6 -6.7°
Maximum altitude 20:11:06 77° 74° (ENE) 668 2.7 -7.2°
Drops below altitude 10° 20:15:36 10° 348° (NNW) 2,066 6.4 -7.6°
Sets 20:17:50 0° 347° (NNW) 2,986 7.4 -7.8°
